Vertical_Velocity
-1 -1 -1 -1 -1 -1 -0 -1 -1 -1 -1 -1 -1 -1 -1 -1 -1 -1 -2 -2 -2 -1 -1 -1 -1 -1 -1 -1 -1 -1 -0 -0 -0 -1 -1 -1 -1 -1 -1 -1 -1 -1 -1 -1 -1 -2 -2 -1 -1 -1 -1 -1 -1 -1 -1 -1 -0 -0 -1 -1 -1 -0 0 0 0 0 0 -1 -1 -2 -1 -0 -1 -1 -1 0 0 0 0 -0 -1 -0 1 -1 -2 -2 1 1 0 -0 -0 -0 -0 -1 -1 -2 -2 -2 0 0 -0 -1 -1
-1 -1 -1 -1 -1 -1 -0 -0 -0 -0 -1 -1 -1 -1 -1 -1 -1 -1 -1 -1 -1 -1 -1 -1 -1 -1 -1 -1 -1 -1 -1 -0 -0 -0 -1 -1 -1 -1 -0 -0 -0 -1 -1 -1 -1 -1 -1 -1 -1 -1 -1 -1 -1 -1 -1 -1 -1 -1 -1 -1 -1 -1 -0 0 0 0 0 0 -1 -1 -1 -1 -1 -1 -2 -1 0 0 0 -0 -1 -0 2 1 -2 -3 -1 1 1 0 -0 -0 -0 -0 -1 -1 -2 -2 -1 -0 -0 -0 -0
-1 -1 -1 -1 -1 -1 -1 -0 -0 -0 -0 -0 -1 -1 -1 -1 -1 -1 -1 -1 -1 -1 -1 -1 -1 -1 -1 -1 -1 -1 -1 -0 -0 -0 -0 -0 -0 -0 -0 -0 -0 -0 -0 -0 -1 -1 -1 -1 -1 -1 -1 -1 -1 -1 -1 -1 -1 -1 -1 -1 -1 -1 -1 -0 -0 0 0 0 0 -1 -1 -1 -1 -1 -2 -1 -0 0 1 1 -0 -1 -0 1 0 -2 -3 -0 1 1 0 -0 -0 -0 -0 -1 -1 -2 -2 -1 -1 -0 -0
-1 -1 -1 -1 -1 -1 -1 -0 -0 -0 -0 -0 -0 -0 -0 -1 -1 -1 -1 -1 -1 -1 -1 -1 -1 -1 -1 -1 -1 -1 -1 -0 -0 -0 -0 -0 -0 -0 0 0 0 0 0 0 -0 -0 -1 -1 -1 -1 -1 -1 -1 -1 -1 -1 -0 -1 -1 -1 -1 -1 -1 -1 -1 -0 0 0 0 -0 -1 -1 -1 -1 -2 -2 -1 -0 1 2 1 -1 -2 -0 0 0 -2 -1 0 1 1 -0 -0 -0 -0 -1 -1 -1 -2 -2 -1 -1 -0
-1 -1 -1 -1 -1 -1 -1 -0 -0 -0 -0 -0 -0 -0 -0 -0 -0 -0 -0 -0 -0 -0 -0 -0 -0 -0 -0 -0 -0 -0 -0 -0 -0 -0 -0 -0 -0 -0 0 0 0 0 0 0 0 0 -0 -0 -1 -1 -1 -1 -1 -1 -0 -0 -0 -0 -0 -0 -1 -1 -1 -1 -1 -1 -1 -0 0 0 -0 -1 -0 -0 -1 -2 -2 -1 1 2 2 1 -1 -2 -1 -1 -1 -1 -0 1 1 0 -0 -1 -1 -1 -1 -1 -1 -1 -1 -1 -1
-1 -1 -1 -1 -1 -1 -1 -0 -0 -0 -0 -0 0 0 0 -0 -0 -0 -0 -0 -0 -0 -0 -0 -0 -0 -0 -0 -0 -0 0 0 0 -0 -0 -0 -0 -0 -0 0 0 0 0 0 0 0 0 0 -0 -0 -0 -0 -0 -0 -0 -0 -0 -0 -0 -0 -0 -0 -0 -0 -0 -1 -1 -0 0 0 0 -0 -0 0 -0 -2 -2 -2 -1 1 2 3 2 -1 -2 -2 -2 -2 -1 0 1 1 0 -1 -1 -1 -1 -0 -0 -1 -1 -1 -1
-1 -1 -1 -1 -0 -0 -0 -0 -0 -0 -0 -0 -0 -0 0 -0 -0 -0 -0 -0 -0 -0 -0 -0 -0 -0 -0 -0 -0 0 0 0 0 -0 -0 -0 -0 -0 -0 -0 -0 0 0 0 1 1 1 1 0 0 0 0 -0 -0 -0 0 0 0 0 -0 -0 -0 -0 -0 -0 -0 -1 -1 -0 0 0 -0 -0 -0 0 -1 -2 -2 -3 -2 0 2 3 2 1 -1 -2 -3 -2 -1 0 1 1 0 -0 -1 -1 -1 -0 -0 -1 -1 -1
-1 -1 -1 -0 -0 -0 -0 -0 -0 -1 -0 -0 -0 -0 -0 -0 -0 -0 -0 -0 -0 -0 -0 -0 -0 -0 -0 -0 -0 -0 -0 -0 -0 -0 -0 -0 -1 -1 -1 -0 -0 -0 0 0 0 1 1 1 1 1 0 0 0 0 0 0 0 0 0 0 -0 -0 -0 -0 -0 -0 -1 -1 -0 0 1 0 -0 -0 0 0 -0 -1 -2 -3 -2 0 2 3 3 1 -0 -2 -3 -3 -2 -0 0 0 0 -0 -1 -1 -1 -0 -0 -1 -1
-1 -1 -1 -1 -0 -0 -0 -1 -1 -1 -1 -1 -1 -0 -0 -0 -0 -0 -0 -0 -0 -0 -0 -0 -0 -0 -0 -0 -0 -0 -0 -0 -0 -0 -0 -1 -1 -1 -1 -1 -0 -0 -0 -0 -0 0 0 1 1 1 1 1 1 0 0 0 0 0 0 0 0 0 -0 -0 -0 -0 -1 -1 -1 -0 0 0 -0 -0 0 0 0 -0 -1 -2 -2 -2 -0 1 2 3 2 1 -1 -2 -2 -2 -1 -0 -0 -0 -0 -1 -1 -1 -1 -1 -1
-1 -1 -1 -1 -1 -0 -1 -1 -1 -1 -1 -1 -1 -1 -1 -1 -0 -0 -1 -1 -1 -1 -1 -0 -0 -0 -0 -0 -0 -0 -0 -0 -0 -0 -0 -0 -1 -1 -1 -1 -0 -0 -0 -0 -0 -1 -0 -0 0 0 0 0 0 0 0 0 0 0 0 0 0 0 0 -0 -0 -0 -0 -0 -0 -0 0 0 0 -0 -0 0 0 0 0 -1 -1 -2 -2 -1 0 1 2 2 1 -0 -1 -1 -1 -1 -0 -0 -0 -0 -0 -1 -1 -1 -1
-0 -0 -0 -1 -1 -1 -1 -1 -1 -1 -1 -1 -1 -1 -1 -1 -1 -1 -1 -1 -1 -1 -1 -0 -0 -0 -0 -0 -0 -0 -0 -0 -0 -0 0 -0 -0 -1 -1 -1 -1 -0 -0 -0 -1 -1 -1 -1 -0 -0 -0 -0 -0 -0 0 0 -0 0 0 0 0 0 0 0 -0 -0 -0 -0 -0 -0 -0 0 0 0 -0 0 0 0 0 0 -0 -1 -2 -1 -1 0 1 1 1 1 0 -0 -0 -0 -0 -0 -0 -0 -0 -0 -0 -1 -1
-0 -0 -0 -0 -0 -0 -1 -1 -1 -1 -1 -1 -1 -1 -1 -1 -1 -1 -1 -1 -1 -1 -0 -0 -0 -0 -0 -0 -0 -0 -0 -0 -0 -0 0 0 0 -0 -1 -1 -1 -0 0 -0 -0 -1 -1 -1 -1 -1 -0 -0 -0 -0 -0 -0 -0 -0 -0 0 0 0 0 0 0 -0 -0 -0 -0 -0 -0 0 0 0 -0 -0 -0 0 0 0 -0 -0 -1 -1 -1 -1 -0 1 1 1 1 1 0 0 -0 -0 -0 -0 -0 -0 -0 -0 -1
-1 -1 -0 -0 -0 -0 -1 -0 -1 -1 -1 -1 -1 -1 -1 -1 -1 -1 -1 -1 -1 -1 -0 -0 -0 -0 -0 -0 -0 -0 -0 -0 -0 -0 -0 0 0 0 -0 -1 -1 -0 0 0 0 -0 -1 -1 -1 -1 -1 -1 -1 -1 -0 -0 -0 -0 -0 -0 0 0 0 0 0 -0 -0 -0 -0 -0 -1 -0 0 0 -0 -1 -0 -0 0 0 0 -0 -0 -1 -1 -1 -1 -0 -0 0 1 1 1 1 0 0 0 -0 -0 -0 0 0 -0
-1 -1 -1 -1 -1 -1 -1 -1 -1 -1 -1 -1 -1 -1 -1 -1 -1 -1 -1 -1 -1 -1 -1 -1 -0 -0 -0 -0 -0 -0 -0 -0 -0 -0 -0 -0 0 0 -0 -1 -1 -1 -0 0 1 1 -0 -1 -1 -1 -1 -1 -1 -1 -1 -1 -1 -1 -0 -0 -0 -0 0 0 0 0 -0 -0 -0 -0 -0 -1 -0 0 0 -0 -1 -1 0 0 0 0 0 -0 -0 -1 -1 -1 -1 -1 -0 0 0 1 1 0 0 0 0 0 -0 -0 -0
-1 -1 -1 -1 -1 -1 -1 -1 -1 -1 -1 -1 -1 -1 -1 -1 -1 -1 -1 -1 -1 -1 -1 -1 -1 -1 -1 -1 -1 -0 -0 -0 -0 -0 -0 -0 -0 -0 -0 -1 -1 -1 -1 0 1 1 1 0 -1 -1 -1 -1 -1 -1 -1 -1 -1 -1 -1 -0 -0 -0 -0 0 0 0 -0 -0 -1 -1 -0 -0 -0 -0 0 0 -0 -1 -0 -0 0 0 0 0 0 0 -0 -0 -1 -1 -1 -0 -0 0 0 0 0 0 0 0 0 -0 -0
-0 -0 -0 -0 -0 -0 -0 -0 -1 -1 -1 -1 -1 -1 -1 -1 -1 -1 -1 -1 -1 -1 -1 -1 -1 -1 -1 -1 -1 -1 -1 -1 -0 -1 -1 -1 -0 -0 -0 -1 -1 -1 -1 -1 0 1 1 1 0 -0 -1 -1 -1 -0 -0 -0 -0 -1 -0 -0 -0 -0 -0 -0 0 0 0 -0 -1 -1 -1 -0 0 0 0 0 0 -0 -0 -0 0 0 0 0 0 0 0 0 -0 -0 -1 -0 -0 -0 0 0 0 0 0 0 0 0 0
-0 -0 -0 0 0 0 0 0 0 -0 -0 -1 -1 -1 -1 -1 -1 -0 -0 -0 -0 -0 -0 -0 -0 -0 -0 -0 -0 -0 -0 -0 -0 -0 -0 -0 -0 -0 -1 -1 -1 -1 -2 -1 -1 0 1 1 0 -0 -1 -1 -1 -0 -0 -0 -0 -0 -0 -0 -0 -0 0 -0 0 0 0 0 -0 -1 -1 -1 -0 0 0 0 0 0 -0 -0 -0 0 0 0 0 0 0 0 0 0 -0 -0 -0 -0 0 0 0 0 0 0 0 0 0
-0 -0 -0 -0 -0 -0 -0 -0 0 0 0 -0 -0 -1 -1 -1 -1 -0 -0 -0 -0 -0 -1 -0 -0 -0 -0 -0 -0 -0 -0 -0 0 0 -0 -0 -0 -0 -0 -1 -1 -1 -2 -2 -1 -1 -0 0 0 0 -0 -1 -1 -1 -0 -0 -0 0 -0 -0 -0 -0 0 0 -0 -0 0 0 0 -0 -1 -1 -1 -0 0 0 1 0 0 0 0 0 0 0 0 0 1 1 1 0 0 0 -0 -0 0 0 0 0 0 0 0 0 0
-0 -0 -0 -1 -1 -1 -1 -1 -0 -0 0 -0 -0 -0 -0 -1 -1 -1 -1 -1 -1 -1 -1 -1 -1 -0 -0 -0 -0 -0 -0 0 0 0 0 0 0 0 -0 -0 -1 -1 -1 -2 -2 -2 -1 -0 0 0 -0 -1 -1 -1 -1 -1 -0 -0 0 -0 -0 -0 -0 0 -0 -0 -0 0 0 1 0 -1 -1 -1 -0 0 0 1 1 0 0 0 0 0 0 0 1 1 1 1 0 0 0 0 0 0 0 0 0 0 0 0 0
-0 -0 -0 -0 -1 -1 -1 -1 -1 -1 -1 -1 -1 -1 -1 -1 -1 -1 -1 -1 -1 -1 -1 -1 -1 -1 -1 -0 -0 -0 -0 0 0 0 0 0 0 0 0 0 -0 -0 -1 -1 -2 -2 -1 -1 0 0 0 -0 -0 -1 -1 -1 -1 -1 -0 -0 -0 -0 -0 -0 0 0 -0 -0 0 0 1 0 -0 -1 -0 -0 0 1 1 1 1 0 0 0 0 1 1 1 1 1 1 0 0 0 0 0 0 0 0 0 0 1 0
-1 -1 -0 -0 -1 -1 -1 -1 -1 -1 -1 -1 -1 -1 -1 -1 -1 -1 -1 -1 -1 -1 -1 -1 -1 -1 -1 -1 -1 -0 -0 -0 -0 -0 -0 -0 0 0 0 0 0 -0 -0 -1 -1 -1 -2 -1 -0 0 0 0 -0 -0 -1 -1 -1 -1 -1 -1 -1 -1 -1 -0 -0 0 0 -0 -0 -0 0 0 0 -0 -0 -0 -0 0 1 1 1 1 1 1 1 1 1 1 1 1 1 0 0 0 0 0 0 0 0 0 0 1 1
-0 -0 -0 -0 -1 -1 -1 -1 -1 -1 -1 -1 -1 -1 -1 -1 -1 -1 -1 -1 -1 -1 -1 -1 -1 -1 -1 -1 -1 -1 -1 -1 -0 -0 -0 -0 -0 -0 -0 0 0 -0 -0 -1 -1 -1 -2 -1 -1 -0 -0 0 -0 -0 -1 -1 -1 -1 -1 -1 -1 -1 -1 -1 -1 -0 0 0 -0 -0 -0 0 0 0 -0 -0 -0 0 0 0 1 1 1 1 1 1 0 0 0 0 0 0 0 0 0 0 0 0 0 0 0 1 1
-0 -0 -0 -0 -0 -1 -1 -1 -1 -1 -1 -1 -1 -1 -1 -1 -1 -1 -1 -1 -1 -1 -1 -1 -1 -1 -1 -1 -1 -1 -1 -1 -1 -1 -1 -0 -0 -0 -0 -0 -0 -0 -0 -0 -1 -1 -1 -1 -1 -1 -1 -0 -0 -0 -1 -1 -1 -1 -1 -1 -1 -1 -1 -1 -1 -1 -0 0 0 0 -0 0 0 0 0 0 0 0 0 0 0 1 1 1 1 1 0 0 0 0 0 0 0 0 0 0 0 0 0 0 0 0 1
-1 -0 -0 -0 -0 -0 -0 -1 -1 -1 -1 -1 -1 -1 -1 -1 -1 -1 -1 -1 -1 -1 -1 -1 -1 -1 -1 -1 -1 -1 -1 -1 -1 -1 -1 -1 -1 -1 -0 -0 -0 -0 -0 -1 -1 -1 -1 -1 -1 -1 -1 -1 -1 -1 -1 -1 -1 -1 -1 -1 -1 -1 -1 -2 -2 -1 -1 -0 0 0 0 0 0 0 0 0 0 0 0 0 0 0 0 0 0 0 0 0 0 0 0 0 0 0 0 0 0 0 -0 -0 0 0 0
-1 -1 -1 -0 -0 -0 -0 -0 -1 -1 -1 -1 -1 -1 -1 -1 -1 -1 -1 -1 -1 -1 -1 -1 -1 -1 -1 -1 -1 -1 -1 -1 -1 -1 -1 -1 -1 -1 -1 -1 -1 -1 -1 -1 -1 -1 -1 -1 -2 -1 -1 -1 -1 -1 -1 -1 -1 -1 -1 -1 -1 -1 -1 -1 -2 -2 -1 -1 -0 0 0 0 0 0 0 0 0 0 0 0 0 0 0 0 0 0 0 0 0 0 0 0 0 0 0 0 0 0 -0 -0 -0 -0 0
-1 -1 -1 -1 -0 -0 -0 -0 -0 -1 -1 -1 -1 -1 -1 -1 -1 -1 -1 -1 -1 -1 -1 -1 -1 -1 -1 -1 -1 -1 -1 -1 -1 -1 -1 -1 -1 -1 -1 -1 -1 -1 -1 -1 -1 -1 -1 -1 -2 -2 -2 -1 -1 -1 -1 -1 -1 -1 -1 -1 -1 -1 -1 -1 -1 -1 -2 -1 -1 -0 0 0 0 0 0 0 0 0 0 0 0 0 0 0 0 0 0 0 0 0 0 0 0 0 0 0 0 0 -0 -0 -0 -0 -0
-1 -1 -1 -1 -1 -1 -0 -0 -0 -1 -1 -1 -1 -1 -1 -1 -1 -0 -0 -1 -1 -1 -1 -1 -1 -1 -1 -1 -1 -1 -1 -1 -1 -1 -1 -1 -1 -1 -1 -1 -1 -2 -2 -2 -1 -1 -1 -1 -2 -2 -2 -2 -1 -1 -1 -1 -1 -1 -1 -1 -1 -1 -0 -1 -1 -1 -1 -1 -1 -1 -0 0 0 0 0 -0 -0 -0 -0 -0 -0 0 0 0 0 0 1 0 0 0 0 0 0 0 0 0 0 0 0 -0 -0 -0 -0
-1 -1 -1 -1 -1 -1 -1 -1 -1 -1 -1 -1 -1 -1 -1 -1 -1 -1 -1 -1 -1 -1 -1 -1 -1 -1 -1 -1 -1 -1 -1 -1 -1 -1 -1 -1 -1 -1 -1 -1 -1 -2 -2 -2 -2 -2 -2 -2 -2 -2 -2 -2 -2 -1 -1 -1 -1 -1 -1 -1 -1 -1 -0 -0 -0 -0 -0 -1 -1 -1 -1 -1 -0 -0 -0 -0 -0 -0 -0 -0 -0 -0 -0 0 0 0 1 1 1 1 1 0 0 0 0 1 0 0 0 0 -0 -0 -0
-1 -1 -1 -1 -1 -1 -1 -1 -1 -1 -1 -1 -1 -1 -1 -1 -1 -1 -1 -1 -1 -1 -1 -1 -1 -1 -1 -1 -1 -1 -0 -1 -1 -1 -1 -1 -1 -1 -1 -1 -1 -1 -1 -2 -2 -2 -2 -2 -2 -2 -2 -2 -2 -1 -1 -1 -1 -1 -1 -1 -1 -1 -0 -0 -0 -0 -0 -0 -1 -1 -2 -1 -1 -1 -0 -0 -0 -0 -0 -0 -0 -0 -0 -0 -0 0 0 1 1 1 1 1 0 0 0 1 1 1 1 0 0 -0 -0
-1 -1 -1 -1 -1 -1 -1 -1 -1 -1 -1 -1 -1 -1 -1 -1 -1 -1 -1 -1 -1 -1 -1 -1 -1 -1 -1 -1 -1 -1 -1 -0 -1 -1 -1 -1 -1 -1 -1 -1 -1 -1 -1 -1 -1 -1 -1 -1 -1 -2 -2 -2 -2 -2 -1 -1 -1 -1 -1 -1 -1 -1 -0 -0 -0 -0 -1 -0 -0 -0 -1 -1 -1 -1 -1 -1 -1 -1 -1 -0 -0 -0 -0 -0 -1 -1 -0 0 0 1 1 1 1 0 0 0 1 1 1 1 0 0 0
-0 -0 -0 -1 -1 -1 -1 -1 -1 -1 -1 -1 -1 -1 -1 -1 -1 -1 -1 -1 -1 -1 -1 -1 -1 -1 -1 -1 -1 -1 -1 -1 -1 -1 -1 -1 -1 -1 -1 -1 -1 -1 -0 -0 -1 -1 -1 -1 -1 -1 -1 -2 -2 -2 -2 -1 -1 -1 -1 -1 -1 -1 -1 -0 -0 -0 -1 -1 -0 -0 -0 -1 -1 -1 -1 -1 -1 -1 -1 -1 -1 -0 -0 -0 -1 -1 -1 -1 -0 0 1 1 1 1 0 0 1 1 1 1 1 0 0
-0 0 0 -0 -0 -1 -1 -1 -1 -1 -1 -1 -1 -1 -1 -0 -1 -1 -1 -1 -1 -1 -1 -1 -1 -1 -1 -1 -1 -1 -1 -1 -1 -2 -2 -1 -1 -1 -1 -1 -1 -1 -0 -0 -1 -1 -1 -1 -1 -1 -1 -2 -2 -2 -2 -1 -1 -1 -1 -1 -1 -1 -1 -1 -1 -1 -1 -1 -1 -1 -0 -0 -1 -1 -1 -1 -1 -1 -1 -1 -1 -1 -0 -0 -0 -1 -1 -1 -1 -0 0 0 1 1 0 0 0 1 1 1 1 0 0
-0 0 0 0 -0 -0 -1 -1 -1 -1 -1 -1 -1 -1 -1 -1 -0 -0 -1 -1 -1 -1 -1 -1 -1 -0 -0 -1 -1 -1 -1 -1 -1 -2 -2 -2 -2 -2 -1 -1 -1 -0 -0 -0 -1 -1 -1 -1 -1 -1 -1 -1 -2 -2 -3 -2 -2 -1 -1 -1 -1 -1 -1 -1 -1 -1 -1 -1 -1 -1 -0 -0 -0 -1 -1 -1 -1 -1 -1 -1 -1 -1 -1 -0 -0 -0 -0 -1 -1 -1 -0 0 0 1 1 1 0 1 1 1 1 1 0
-1 -1 -0 -0 -0 -0 -1 -1 -1 -1 -0 -1 -1 -1 -1 -1 -1 -0 -1 -1 -1 -1 -0 -0 -0 -0 -0 -0 -1 -1 -1 -1 -1 -1 -2 -3 -2 -2 -2 -1 -1 -1 0 -0 -0 -1 -1 -2 -2 -2 -1 -1 -1 -2 -2 -3 -3 -2 -2 -1 -1 -1 -1 -1 -1 -1 -1 -1 -1 -1 -1 -0 -0 -0 -1 -1 -1 -0 -0 -1 -1 -1 -1 -1 -0 -0 -0 -0 -0 -1 -1 -0 -0 0 0 0 0 1 1 1 1 1 1
-2 -2 -1 -1 -1 -1 -1 -1 -1 -1 -0 -0 -1 -1 -1 -1 -1 -1 -1 -1 -1 -1 -0 -0 -0 -0 0 0 -0 -1 -1 -0 -0 -0 -1 -2 -2 -2 -2 -1 -1 -1 -0 -0 -0 -1 -1 -2 -2 -2 -2 -1 -1 -1 -2 -2 -3 -3 -2 -2 -1 -1 -1 -1 -1 -1 -1 -1 -1 -1 -1 -1 -0 -0 -0 -0 -0 -0 0 -0 -0 -1 -1 -1 -0 -0 0 -0 -0 -0 -0 -0 -0 0 0 0 0 0 1 1 1 1 1
-1 -1 -2 -2 -2 -2 -2 -2 -1 -1 -0 -0 -0 -1 -1 -1 -1 -1 -0 -1 -1 -1 -0 0 0 0 0 0 -0 -0 -0 0 1 1 -0 -1 -1 -1 -1 -1 -1 -0 -0 -0 -0 -0 -0 -1 -2 -2 -2 -2 -1 -1 -1 -1 -2 -3 -3 -3 -2 -1 -1 -1 -1 -1 -1 -1 -1 -1 -1 -1 -0 -0 0 -0 -0 -0 0 0 0 -0 -0 -1 -0 -0 0 0 0 0 -0 -0 0 0 0 0 0 0 0 1 1 1 1
-0 -0 -1 -1 -2 -2 -3 -2 -2 -1 -0 -0 -0 -0 -1 -0 -0 -0 -0 -0 -1 -0 -0 0 0 0 0 0 -0 -0 -0 0 1 0 0 0 0 0 0 0 0 0 0 0 0 1 0 -0 -1 -2 -2 -2 -1 -1 -0 -1 -1 -2 -3 -3 -3 -2 -1 -1 -1 -1 -0 -1 -1 -1 -1 -1 -1 -1 -0 0 0 0 0 1 1 0 0 -0 -0 -0 0 0 1 0 0 0 0 0 0 0 1 1 1 1 1 1 1
-0 -0 -1 -1 -1 -2 -2 -2 -2 -1 -0 -0 -0 -0 -0 -1 -1 -1 -1 -1 -1 -1 -0 -0 -0 -0 -0 -0 -1 -1 -1 -1 -1 -1 -1 -1 -1 -0 -0 0 1 1 0 1 1 1 1 1 -0 -1 -1 -1 -1 -1 -0 -0 -1 -1 -2 -3 -3 -3 -2 -2 -1 -1 -0 -1 -1 -1 -2 -2 -2 -1 -1 -0 -0 0 0 1 1 1 1 0 -0 -0 -0 0 1 1 0 0 0 0 0 1 1 1 1 1 1 1 1
-0 -0 -1 -1 -1 -2 -2 -2 -1 -1 -0 -0 -0 -0 -0 -1 -1 -1 -1 -1 -2 -2 -1 -1 -1 -1 -1 -1 -1 -1 -2 -2 -2 -2 -3 -3 -2 -2 -2 -1 0 0 0 1 1 1 1 1 0 -0 -1 -1 -1 -1 -0 -0 -1 -1 -1 -2 -2 -3 -3 -2 -2 -1 -1 -1 -1 -1 -1 -2 -2 -2 -2 -1 -1 -1 -0 0 1 1 1 1 0 0 0 0 0 1 1 0 0 0 0 0 1 1 1 1 1 1 1
-0 -0 -1 -1 -1 -1 -1 -1 -1 -0 0 0 0 0 0 -0 -1 -1 -1 -2 -2 -2 -2 -2 -2 -3 -2 -2 -2 -2 -2 -2 -2 -2 -3 -3 -3 -3 -2 -2 -1 -1 -0 0 1 1 0 0 0 0 0 -0 -0 -0 -0 -0 -0 -0 -0 -1 -2 -2 -3 -3 -2 -2 -1 -1 -1 -1 -1 -1 -1 -1 -2 -2 -2 -1 -1 -0 0 1 1 1 1 1 0 0 0 1 1 1 0 0 0 0 0 1 1 1 1 1 1
-0 -0 -0 -1 -1 -1 -1 -0 -0 0 1 1 1 1 1 1 0 -0 -1 -1 -1 -2 -2 -2 -2 -3 -3 -3 -2 -2 -2 -2 -2 -2 -2 -2 -2 -2 -2 -2 -1 -1 -1 -0 -0 -0 -0 -0 0 0 1 0 0 -0 -0 -0 0 0 0 -0 -1 -1 -2 -2 -2 -2 -2 -1 -1 -1 -1 -1 -1 -1 -1 -1 -1 -1 -1 -1 -0 0 1 1 1 1 1 1 1 1 1 1 1 0 0 0 0 0 1 1 1 2 2
-0 -0 0 -0 -0 -0 -0 0 1 1 1 1 1 1 1 1 1 1 1 0 -0 -1 -2 -2 -2 -1 -2 -2 -2 -2 -1 -1 -1 -1 -0 -0 -1 -1 -1 -1 -1 -1 -1 -1 -1 -1 -1 -0 1 1 1 1 0 0 -0 -0 0 0 0 0 0 -0 -1 -1 -2 -2 -2 -1 -1 -0 -0 -0 -0 -0 -0 -1 -1 -1 -1 -1 -1 -0 0 1 1 1 1 1 1 1 1 1 1 1 0 0 -0 0 0 1 1 2 2
0 0 0 0 0 0 0 1 1 1 2 1 1 1 1 0 1 1 1 1 1 0 -1 -1 -1 -0 -0 -1 -1 -1 -1 -1 -1 -0 0 1 0 0 -0 -1 -1 -1 -1 -1 -1 -1 -0 0 1 1 1 1 1 0 0 -0 -0 0 0 0 0 0 0 -0 -1 -1 -1 -1 -1 -1 0 0 0 0 0 0 0 -0 -0 -1 -1 -1 -1 -0 0 0 1 1 1 1 1 1 1 1 1 0 0 0 0 0 1 1 2
1 1 1 1 0 0 1 1 1 2 2 2 1 1 1 0 0 0 1 1 1 1 -0 -1 -1 0 1 0 0 -0 -0 -1 -1 -0 1 1 1 1 -0 -1 -1 -1 -1 -1 -1 -1 0 0 1 1 1 1 1 0 0 0 -0 -0 0 1 1 1 1 0 -0 -0 -1 -1 -1 -1 -0 0 1 1 1 1 1 1 0 -0 -0 -1 -1 -0 -0 -0 -0 0 1 1 1 1 0 0 0 1 1 0 0 0 0 0 1
1 1 1 1 1 1 1 1 1 2 2 2 2 1 1 0 -0 -0 0 1 1 1 0 -0 -0 0 1 1 1 1 0 -0 -0 0 1 1 1 1 0 -1 -2 -2 -1 -1 -1 -0 0 1 1 1 1 1 1 1 0 -0 -0 -0 0 0 1 1 1 1 0 -0 -0 -1 -1 -1 -0 -0 0 0 0 1 1 1 1 0 0 -0 -0 -0 -0 -0 -1 -0 0 1 1 0 -0 -0 0 0 1 1 1 0 -0 -0 -0
1 1 1 1 1 1 1 1 1 1 1 2 2 2 1 1 0 -0 -0 0 1 1 1 0 0 0 1 2 2 2 1 0 0 0 1 1 1 0 -0 -1 -2 -2 -1 -0 0 0 -0 0 1 1 1 1 1 1 0 -0 -0 -0 0 -0 0 1 1 1 1 0 -0 0 0 0 0 -0 -0 -0 -0 0 0 1 0 0 0 0 1 0 0 -0 -1 -1 -1 -0 0 0 -0 -1 -1 -0 0 1 1 1 0 -1 -1
1 1 1 1 1 1 0 0 0 0 1 1 1 1 1 0 0 -0 -0 -0 -0 0 1 1 1 1 0 1 1 2 1 0 -0 -0 0 1 1 -0 -1 -1 -1 -0 -0 0 1 1 0 0 1 1 1 1 1 1 1 0 0 0 0 -0 0 1 1 1 1 0 0 1 1 1 1 -0 -1 -1 -1 -1 -0 0 0 0 0 0 0 1 1 0 -0 -1 -1 -1 -0 -0 -1 -1 -1 -1 -0 0 1 1 1 -0 -2
1 1 1 1 1 0 -0 -1 -1 -1 -0 0 0 0 0 -0 -0 -0 -0 -0 -0 -0 -0 0 1 1 1 0 0 0 0 -0 -1 -1 -1 -0 -0 -1 -1 -2 -1 1 2 1 0 0 1 1 1 1 1 0 0 1 1 1 1 1 1 1 1 1 1 1 1 0 1 1 2 2 1 1 -0 -1 -1 -1 -1 -0 -0 -0 -0 -0 -0 0 1 1 1 1 0 -0 0 0 -0 -1 -2 -1 -1 -0 0 1 1 0 -1
1 1 1 1 1 0 -0 -1 -1 -1 -1 -0 -0 -0 -0 -0 -0 -0 -0 -0 -0 -0 -0 1 1 1 1 1 -0 -1 -2 -2 -3 -2 -1 -1 -2 -2 -2 -2 -1 -0 2 1 0 0 1 1 1 -1 -1 -1 -0 0 1 1 1 1 1 1 1 1 1 1 1 0 1 2 2 2 1 1 1 -0 -1 -1 -1 -1 -1 -1 -1 -1 -1 -1 -0 1 1 2 2 2 1 1 0 -1 -1 -1 -1 -0 0 0 0 0 -0
1 1 1 1 1 0 0 -0 -0 -0 -0 0 0 1 1 1 1 1 1 0 0 -0 -0 0 1 1 1 1 0 -1 -3 -4 -4 -4 -3 -2 -2 -3 -3 -1 -1 -1 -1 -0 0 1 1 2 1 -1 -3 -1 -1 -1 -0 1 1 1 1 2 1 1 1 1 0 0 1 1 2 2 1 1 1 1 -0 -0 -0 -1 -1 -1 -1 -1 -1 -1 -1 -0 1 2 3 3 3 3 1 0 -1 -1 -0 -0 0 0 0 0 -0
1 1 1 1 1 1 1 1 1 1 0 1 1 2 2 2 2 2 2 2 1 0 0 1 1 1 1 0 0 -0 -2 -4 -3 -3 -4 -3 -2 -2 -4 -2 -0 0 -2 -2 -1 0 0 1 0 -1 -3 -2 -2 -2 -3 -1 0 1 1 1 1 1 0 -0 0 0 1 1 1 1 1 1 1 1 0 0 0 -0 -1 -1 -1 -1 -1 -1 -1 -1 -0 1 2 3 4 4 3 1 -0 -0 -0 1 1 1 0 -0 -0
1 1 1 1 1 1 1 1 1 1 1 1 2 2 2 3 3 3 3 3 2 1 1 1 1 1 1 0 -1 -1 0 -2 -2 -2 -2 -3 -3 -2 -3 -3 -2 0 1 -1 -0 1 0 -3 -2 -0 -1 -4 -4 -3 -4 -3 -1 -0 -1 -1 -0 0 -0 -0 -0 0 0 0 0 -0 -0 0 0 1 1 1 0 0 -0 -1 -1 -1 -1 -1 -1 -1 -0 0 1 3 4 5 4 2 0 -1 -0 0 1 1 1 0 -0
1 1 1 1 0 0 0 1 1 1 1 1 2 2 2 2 3 3 3 2 2 1 1 1 2 2 1 1 -1 -2 -0 -0 -0 -1 -0 -2 -3 -3 -1 -2 -3 -3 1 2 3 5 7 -0 -2 -1 2 -2 -3 -3 -2 -3 -2 -1 -2 -3 -2 -1 -0 -0 -0 0 0 -0 -0 -1 -1 -1 -1 -0 0 1 1 1 0 0 -0 -0 -1 -1 -1 -0 -0 0 1 2 3 4 5 4 1 -0 -1 -0 0 1 1 1 0
1 1 0 0 0 -0 0 -0 -0 -0 0 1 1 2 3 3 2 2 2 2 2 1 -0 0 1 2 1 1 1 -1 -1 1 1 -0 -0 -1 -3 -4 -2 -0 -1 -3 -3 -0 1 3 9 8 5 3 3 1 -0 -0 1 -0 -1 -1 -0 -3 -3 -3 -1 -1 -0 0 0 -0 -1 -1 -1 -2 -2 -1 -1 -0 1 1 1 1 1 0 -0 -0 0 0 1 0 2 3 1 3 4 4 3 1 0 -0 -0 -0 0 0 0
0 0 -0 -0 -1 -1 -1 -1 -1 -1 -1 -0 1 2 3 3 3 3 2 3 3 2 -1 -1 0 1 2 2 2 2 0 1 1 -0 -1 -1 -2 -3 -4 -3 -2 -2 -3 -2 -2 -2 -1 5 8 9 6 2 1 2 5 3 1 -1 0 -1 -2 -3 -2 -2 -1 -1 -0 -0 -1 -1 -2 -2 -2 -2 -1 -1 -0 1 1 1 1 0 0 0 0 1 1 0 0 0 2 4 4 4 3 2 1 0 -0 -1 -1 -1 -0
-1 -1 -1 -1 -1 -1 -1 -1 -1 -1 -1 -1 -0 1 3 5 6 6 4 3 3 2 -0 0 1 3 4 1 0 2 2 1 1 0 -1 -2 -1 -1 -2 -3 -3 -3 -4 -3 -3 -3 -3 -1 1 4 6 6 3 2 5 7 5 1 -3 -2 -1 -0 -1 -1 -0 -0 -0 0 0 0 -0 -1 -1 -1 -1 -1 -1 -0 1 1 0 -0 0 0 -0 -0 -0 -0 -0 0 1 4 5 6 4 3 3 2 0 -0 -1 -1 -1
-2 -2 -2 -2 -2 -2 -1 -1 -0 0 0 -0 0 2 6 8 6 2 1 4 5 4 1 1 4 7 6 -2 -2 0 1 1 1 1 1 -1 -0 0 1 -0 -2 -2 -3 -4 -4 -5 -5 -1 -1 -3 -4 6 7 4 -0 6 9 7 1 -3 -3 -1 1 2 2 2 2 2 2 3 2 2 1 1 0 1 0 -0 -0 -0 -0 -0 0 -0 -0 -1 -1 -0 -0 -0 2 4 4 5 4 4 4 5 4 2 0 -1 -1
-3 -2 -2 -2 -2 -2 -1 1 3 6 5 5 6 7 7 4 2 0 0 3 5 4 2 2 4 5 2 -2 -3 -1 -0 0 1 1 1 1 0 -0 -1 -0 -0 -1 -2 -3 -3 -5 -8 -4 -3 -4 -9 -2 4 7 2 2 5 8 8 2 -1 -2 -0 1 2 3 3 3 3 4 4 5 4 3 3 3 2 1 -1 -1 -1 -1 -0 -1 -1 -0 2 5 4 4 7 6 6 6 6 5 5 7 8 7 4 1 0
-3 -3 -2 -2 -2 -1 1 5 10 12 8 6 6 6 2 -0 -0 1 1 3 4 4 3 1 1 1 0 -1 -1 -1 -1 -0 -0 -0 -0 1 0 -1 -3 -2 -1 -1 -2 -2 -3 -3 -5 -6 -6 -7 -6 -7 -3 2 8 5 3 3 5 4 2 1 0 -0 0 0 1 1 2 2 2 3 4 5 5 4 3 2 0 -1 -1 -1 -2 -2 -2 -2 -1 1 6 12 20 22 20 15 9 9 8 9 11 14 11 7 3
-3 -3 -2 -2 -1 1 6 9 9 7 1 -1 -1 1 2 1 1 1 4 7 6 4 4 1 1 1 1 0 -0 -0 -1 -1 -1 -1 -1 -1 -1 -1 -1 -3 -3 -2 -2 -2 -3 -4 -3 -3 -5 -6 -7 -8 -7 -3 5 8 7 4 3 2 1 1 4 2 -0 -2 -1 -1 -1 -1 -1 -1 0 2 4 4 4 3 2 1 -0 -1 -1 -1 -1 -2 -2 -3 -0 7 20 25 30 30 22 14 11 11 13 19 19 14 8
-2 -2 -3 -2 -0 2 6 4 3 2 2 2 1 1 2 1 1 3 8 8 3 -1 0 0 0 1 1 0 -0 -0 -1 -2 -2 -2 -1 -1 -1 -1 -0 -1 -3 -3 -2 -2 -3 -3 -3 -3 -2 -3 -6 -7 -7 -5 -1 5 6 5 4 4 2 1 3 4 1 -1 -2 -1 -1 -2 -2 -3 -3 -1 1 3 3 3 2 1 0 -1 -1 -1 -1 -1 -1 -3 -4 -2 6 18 26 32 34 24 16 13 14 20 23 22 18
Height
5894 5894 5894 5894 5893 5893 5893 5893 5893 5892 5892 5892 5892 5891 5891 5891 5891 5890 5890 5890 5889 5889 5889 5888 5888 5888 5887 5887 5887 5886 5886 5885 5885 5884 5884 5883 5883 5883 5882 5882 5881 5881 5880 5879 5879 5878 5878 5877 5877 5876 5876 5875 5874 5874 5873 5873 5873 5872 5872 5871 5870 5870 5870 5869 5869 5868 5868 5868 5867 5866 5866 5865 5865 5864 5864 5864 5863 5864 5865 5862 5862 5862 5862 5861 5860 5860 5860 5860 5859 5858 5858 5858 5857 5857 5857 5856 5855 5855 5854 5854 5853 5853 5853
5893 5893 5893 5893 5893 5893 5892 5892 5892 5892 5892 5891 5891 5891 5890 5890 5890 5890 5889 5889 5889 5888 5888 5888 5887 5887 5886 5886 5886 5885 5885 5884 5884 5883 5883 5883 5882 5882 5881 5881 5880 5880 5879 5879 5878 5878 5877 5876 5876 5875 5875 5874 5874 5873 5873 5872 5872 5871 5871 5870 5869 5869 5868 5868 5868 5868 5867 5866 5866 5865 5865 5864 5864 5863 5863 5863 5862 5863 5864 5862 5861 5861 5861 5860 5859 5858 5858 5858 5858 5858 5857 5857 5856 5856 5855 5855 5854 5853 5853 5853 5853 5852 5852
5893 5893 5892 5892 5892 5892 5892 5891 5891 5891 5891 5891 5890 5890 5890 5890 5889 5889 5889 5888 5888 5888 5887 5887 5887 5886 5886 5885 5885 5884 5884 5883 5883 5883 5882 5882 5881 5881 5880 5880 5879 5879 5878 5878 5878 5877 5876 5876 5875 5874 5874 5873 5873 5872 5872 5871 5871 5870 5870 5869 5868 5868 5868 5867 5867 5866 5866 5865 5865 5865 5864 5863 5863 5863 5862 5862 5861 5861 5862 5862 5861 5860 5860 5859 5858 5858 5857 5857 5857 5857 5856 5856 5855 5855 5854 5854 5853 5853 5852 5852 5852 5851 5851
5892 5892 5892 5891 5891 5891 5891 5891 5890 5890 5890 5890 5890 5889 5889 5889 5889 5888 5888 5888 5888 5887 5887 5886 5886 5885 5885 5884 5884 5883 5883 5883 5882 5882 5881 5881 5880 5880 5879 5879 5879 5878 5878 5877 5877 5876 5875 5875 5874 5874 5873 5873 5872 5872 5871 5870 5870 5869 5869 5868 5868 5867 5866 5866 5865 5865 5865 5864 5864 5863 5863 5862 5862 5862 5861 5861 5860 5860 5860 5860 5859 5859 5858 5858 5858 5857 5856 5856 5856 5856 5855 5854 5854 5854 5853 5853 5852 5852 5851 5851 5850 5850 5850
5891 5891 5891 5891 5890 5890 5890 5890 5890 5889 5889 5889 5889 5889 5888 5888 5888 5888 5887 5887 5887 5886 5886 5885 5885 5885 5884 5884 5883 5883 5882 5882 5881 5881 5880 5880 5879 5879 5878 5878 5878 5877 5877 5876 5876 5875 5875 5874 5873 5873 5873 5872 5871 5871 5870 5870 5869 5868 5868 5867 5867 5866 5865 5865 5864 5864 5863 5863 5863 5863 5862 5861 5861 5861 5860 5859 5859 5859 5859 5859 5858 5858 5857 5857 5856 5856 5855 5854 5854 5854 5854 5853 5853 5853 5852 5852 5851 5851 5850 5850 5849 5849 5849
5891 5890 5890 5890 5890 5889 5889 5889 5889 5889 5888 5888 5888 5888 5888 5887 5887 5887 5886 5886 5886 5885 5885 5885 5884 5884 5883 5883 5883 5882 5882 5881 5881 5880 5879 5879 5878 5878 5878 5877 5877 5876 5876 5875 5875 5874 5874 5873 5873 5872 5872 5871 5870 5870 5869 5869 5868 5868 5867 5866 5866 5865 5864 5864 5863 5863 5863 5862 5862 5861 5861 5861 5860 5860 5859 5858 5858 5858 5858 5858 5858 5857 5857 5856 5855 5855 5854 5853 5853 5853 5853 5852 5852 5852 5851 5851 5850 5850 5849 5849 5848 5848 5848
5890 5890 5889 5889 5889 5889 5888 5888 5888 5888 5888 5887 5887 5887 5887 5886 5886 5886 5885 5885 5885 5884 5884 5884 5883 5883 5883 5882 5882 5881 5881 5880 5880 5879 5878 5878 5878 5877 5876 5876 5875 5875 5874 5874 5873 5873 5873 5872 5872 5871 5871 5870 5869 5869 5868 5868 5867 5867 5866 5865 5865 5864 5863 5863 5863 5862 5861 5861 5861 5860 5860 5860 5859 5859 5858 5858 5857 5857 5856 5856 5856 5856 5856 5855 5854 5854 5853 5853 5852 5852 5851 5851 5851 5850 5850 5849 5849 5849 5848 5848 5848 5847 5847
5889 5889 5888 5888 5888 5888 5888 5887 5887 5887 5887 5886 5886 5886 5886 5885 5885 5885 5884 5884 5884 5883 5883 5883 5882 5882 5882 5881 5881 5880 5880 5879 5879 5878 5878 5877 5877 5876 5875 5875 5874 5874 5873 5873 5873 5872 5872 5871 5871 5870 5870 5869 5868 5868 5867 5867 5866 5866 5865 5864 5864 5863 5863 5862 5861 5861 5860 5860 5859 5859 5859 5858 5858 5858 5858 5857 5856 5855 5855 5855 5854 5854 5854 5854 5854 5853 5853 5852 5851 5850 5850 5850 5849 5849 5849 5848 5848 5848 5847 5847 5846 5846 5845
5888 5888 5888 5888 5887 5887 5887 5886 5886 5886 5886 5885 5885 5885 5884 5884 5884 5884 5883 5883 5883 5882 5882 5882 5881 5881 5880 5880 5880 5879 5879 5878 5878 5877 5877 5876 5876 5875 5874 5874 5873 5873 5872 5872 5871 5871 5870 5870 5869 5869 5868 5868 5867 5867 5866 5866 5865 5864 5864 5863 5863 5862 5862 5861 5860 5860 5859 5859 5858 5858 5858 5857 5857 5857 5856 5856 5855 5854 5854 5853 5853 5853 5853 5853 5852 5852 5852 5851 5850 5850 5849 5848 5848 5848 5848 5847 5847 5846 5846 5846 5845 5845 5844
5888 5887 5887 5887 5886 5886 5886 5886 5885 5885 5884 5884 5884 5884 5883 5883 5883 5883 5882 5882 5882 5881 5881 5881 5880 5880 5879 5879 5878 5878 5878 5877 5877 5876 5876 5875 5875 5874 5873 5873 5873 5872 5871 5871 5870 5869 5869 5868 5868 5868 5867 5867 5866 5865 5865 5864 5864 5863 5863 5862 5862 5861 5860 5860 5859 5858 5858 5858 5857 5857 5856 5856 5856 5855 5855 5854 5854 5854 5853 5853 5852 5852 5851 5851 5851 5850 5850 5850 5849 5848 5848 5848 5847 5847 5846 5846 5845 5845 5845 5844 5844 5843 5843
5887 5887 5886 5886 5886 5885 5885 5885 5884 5884 5883 5883 5883 5883 5882 5882 5882 5882 5881 5881 5881 5880 5880 5879 5879 5879 5878 5878 5878 5877 5877 5876 5876 5875 5875 5874 5874 5873 5873 5872 5871 5871 5870 5870 5869 5868 5868 5867 5867 5866 5866 5865 5864 5864 5863 5863 5862 5862 5861 5861 5860 5860 5859 5858 5858 5858 5857 5856 5856 5855 5855 5855 5854 5854 5853 5853 5853 5853 5852 5852 5851 5851 5850 5850 5849 5849 5848 5848 5848 5847 5847 5846 5846 5845 5845 5844 5844 5844 5843 5843 5843 5842 5842
5886 5886 5885 5885 5885 5884 5884 5884 5883 5883 5883 5882 5882 5882 5881 5881 5881 5880 5880 5880 5879 5879 5879 5878 5878 5878 5877 5877 5877 5876 5876 5875 5875 5874 5874 5873 5873 5872 5872 5871 5870 5870 5869 5869 5868 5868 5867 5866 5866 5865 5864 5864 5863 5863 5862 5862 5861 5860 5860 5859 5859 5858 5858 5857 5857 5856 5856 5855 5855 5854 5854 5853 5853 5853 5852 5852 5851 5851 5851 5850 5850 5849 5849 5848 5848 5848 5847 5847 5846 5846 5845 5845 5845 5844 5844 5843 5843 5843 5842 5842 5841 5841 5841
5885 5885 5884 5884 5884 5883 5883 5883 5883 5882 5882 5881 5881 5881 5880 5880 5880 5879 5879 5879 5878 5878 5878 5877 5877 5877 5876 5876 5875 5875 5875 5874 5874 5873 5873 5872 5872 5871 5871 5870 5869 5869 5868 5868 5867 5867 5866 5865 5864 5864 5863 5863 5862 5861 5861 5860 5859 5859 5858 5858 5857 5857 5856 5856 5855 5855 5854 5854 5853 5853 5853 5852 5852 5851 5851 5850 5850 5850 5849 5849 5848 5848 5848 5847 5847 5846 5846 5845 5845 5844 5844 5843 5843 5843 5842 5842 5842 5841 5841 5840 5840 5840 5839
5884 5884 5883 5883 5883 5883 5882 5882 5881 5881 5881 5880 5880 5880 5879 5879 5879 5878 5878 5878 5877 5877 5877 5876 5876 5875 5875 5875 5874 5874 5873 5873 5873 5872 5872 5871 5871 5870 5869 5869 5868 5868 5867 5867 5866 5866 5865 5864 5863 5863 5862 5862 5861 5860 5860 5859 5858 5858 5857 5857 5856 5855 5855 5854 5854 5853 5853 5853 5852 5852 5851 5851 5850 5850 5849 5849 5848 5848 5848 5848 5847 5847 5846 5846 5845 5845 5844 5844 5843 5843 5842 5842 5841 5841 5841 5840 5840 5840 5839 5839 5838 5838 5838
5883 5883 5883 5882 5882 5882 5881 5881 5880 5880 5880 5879 5879 5879 5878 5878 5878 5878 5877 5877 5876 5876 5876 5875 5875 5874 5874 5874 5873 5873 5873 5872 5872 5871 5871 5870 5869 5869 5868 5868 5867 5867 5866 5866 5865 5865 5864 5863 5863 5862 5861 5861 5860 5859 5858 5858 5857 5857 5856 5855 5855 5854 5853 5853 5853 5852 5852 5851 5851 5850 5850 5849 5849 5848 5848 5848 5847 5847 5846 5846 5845 5845 5845 5844 5844 5843 5843 5842 5842 5841 5841 5840 5840 5840 5839 5839 5838 5838 5838 5838 5837 5837 5837
5883 5882 5882 5882 5881 5881 5880 5880 5880 5879 5879 5878 5878 5878 5877 5877 5877 5876 5876 5876 5875 5875 5875 5874 5874 5873 5873 5873 5872 5872 5871 5871 5870 5870 5869 5869 5868 5868 5867 5867 5866 5865 5865 5864 5864 5863 5863 5862 5862 5861 5860 5860 5859 5858 5858 5857 5856 5855 5855 5854 5853 5853 5852 5852 5851 5851 5850 5850 5849 5849 5848 5848 5848 5847 5847 5846 5846 5845 5845 5844 5844 5843 5843 5843 5842 5842 5842 5841 5841 5840 5840 5839 5839 5838 5838 5838 5837 5837 5837 5836 5836 5836 5835
5882 5881 5881 5881 5880 5880 5879 5879 5879 5878 5878 5877 5877 5877 5876 5876 5876 5875 5875 5875 5874 5874 5873 5873 5873 5873 5872 5872 5871 5871 5870 5870 5869 5869 5868 5868 5867 5867 5866 5865 5865 5864 5863 5863 5862 5862 5861 5861 5860 5860 5859 5858 5858 5857 5856 5856 5855 5854 5854 5853 5852 5852 5851 5851 5850 5849 5849 5848 5848 5848 5847 5847 5846 5846 5845 5845 5844 5844 5843 5843 5843 5842 5842 5841 5841 5840 5840 5840 5839 5839 5838 5838 5838 5837 5837 5836 5836 5835 5835 5835 5834 5834 5834
5881 5880 5880 5880 5879 5879 5878 5878 5878 5878 5877 5877 5876 5876 5875 5875 5874 5874 5874 5873 5873 5873 5872 5872 5872 5871 5871 5870 5870 5870 5869 5869 5868 5868 5867 5867 5866 5865 5865 5864 5863 5863 5862 5862 5861 5860 5860 5859 5859 5858 5858 5857 5856 5856 5855 5854 5854 5853 5853 5852 5851 5851 5850 5849 5849 5848 5848 5847 5847 5846 5846 5845 5845 5844 5844 5843 5843 5843 5842 5841 5841 5841 5840 5840 5839 5839 5838 5838 5838 5837 5837 5837 5836 5836 5835 5835 5834 5834 5834 5833 5833 5833 5833
5880 5879 5879 5878 5878 5878 5877 5877 5877 5876 5876 5875 5875 5874 5874 5873 5873 5873 5872 5872 5872 5871 5871 5871 5870 5870 5869 5869 5869 5868 5868 5868 5867 5867 5866 5866 5865 5864 5864 5863 5863 5862 5861 5860 5860 5859 5858 5858 5858 5857 5856 5855 5855 5854 5853 5853 5852 5852 5851 5851 5850 5849 5849 5848 5848 5847 5846 5846 5845 5845 5844 5843 5843 5843 5842 5842 5841 5841 5840 5840 5839 5839 5838 5838 5838 5837 5837 5837 5836 5836 5835 5835 5835 5834 5834 5833 5833 5833 5833 5832 5832 5832 5831
5878 5878 5878 5878 5877 5877 5876 5876 5875 5875 5874 5874 5873 5873 5873 5872 5872 5871 5871 5871 5870 5870 5869 5869 5869 5868 5868 5868 5867 5867 5866 5866 5866 5865 5865 5864 5864 5863 5863 5862 5862 5861 5860 5859 5858 5858 5857 5857 5856 5856 5855 5854 5853 5853 5852 5851 5851 5850 5849 5849 5848 5848 5847 5847 5846 5846 5845 5844 5844 5843 5843 5842 5842 5841 5840 5840 5839 5839 5839 5838 5838 5838 5837 5836 5836 5836 5835 5835 5834 5834 5834 5833 5833 5833 5833 5832 5832 5831 5831 5831 5830 5830 5830
5878 5877 5877 5876 5876 5876 5875 5875 5874 5874 5873 5873 5873 5872 5872 5871 5871 5870 5870 5869 5869 5869 5868 5868 5868 5867 5867 5866 5866 5865 5865 5864 5864 5864 5863 5863 5862 5862 5862 5861 5860 5860 5859 5858 5858 5857 5856 5855 5855 5854 5854 5853 5852 5851 5850 5850 5849 5848 5848 5847 5847 5846 5846 5845 5845 5844 5844 5843 5842 5842 5841 5840 5840 5839 5839 5838 5838 5837 5837 5836 5836 5836 5835 5835 5834 5834 5833 5833 5833 5833 5832 5832 5832 5831 5831 5830 5830 5830 5829 5829 5829 5828 5828
5876 5876 5876 5875 5875 5874 5874 5873 5873 5873 5872 5872 5871 5871 5870 5870 5870 5869 5869 5868 5868 5868 5867 5867 5866 5866 5865 5865 5864 5864 5863 5863 5863 5862 5862 5861 5861 5860 5860 5859 5859 5858 5858 5857 5856 5855 5855 5854 5853 5853 5852 5851 5851 5850 5849 5848 5848 5847 5846 5845 5845 5844 5844 5843 5843 5843 5842 5841 5841 5840 5839 5839 5838 5838 5837 5836 5836 5835 5835 5834 5834 5834 5833 5833 5833 5832 5832 5832 5831 5831 5830 5830 5830 5829 5829 5829 5828 5828 5828 5828 5827 5827 5827
5875 5875 5875 5874 5874 5873 5873 5873 5872 5872 5871 5871 5870 5870 5869 5869 5868 5868 5868 5867 5867 5866 5866 5865 5865 5864 5864 5863 5863 5863 5862 5862 5861 5861 5860 5860 5859 5859 5858 5858 5857 5857 5856 5856 5855 5854 5853 5853 5852 5851 5851 5850 5849 5848 5848 5847 5846 5845 5845 5844 5843 5843 5842 5841 5841 5840 5840 5839 5839 5838 5838 5837 5836 5836 5835 5834 5834 5833 5833 5832 5832 5832 5831 5831 5831 5830 5830 5830 5829 5829 5829 5828 5828 5828 5827 5827 5827 5826 5826 5826 5825 5825 5825
5874 5873 5873 5873 5873 5872 5872 5871 5871 5870 5870 5869 5869 5868 5868 5868 5867 5867 5867 5866 5866 5865 5865 5864 5864 5863 5863 5862 5862 5861 5861 5860 5859 5859 5858 5858 5858 5857 5857 5856 5856 5855 5854 5854 5853 5853 5852 5851 5850 5850 5849 5848 5848 5847 5846 5845 5844 5844 5843 5843 5842 5841 5840 5839 5839 5838 5838 5837 5837 5836 5836 5835 5834 5834 5833 5833 5832 5831 5831 5830 5830 5830 5829 5829 5829 5829 5828 5828 5828 5827 5827 5827 5826 5826 5825 5825 5825 5824 5824 5823 5823 5823 5823
5872 5872 5872 5872 5871 5871 5871 5870 5870 5869 5868 5868 5868 5867 5867 5867 5866 5866 5865 5865 5864 5864 5863 5863 5863 5862 5861 5861 5860 5860 5859 5858 5858 5858 5857 5856 5856 5855 5855 5854 5854 5853 5853 5852 5851 5851 5850 5849 5849 5848 5848 5847 5846 5845 5844 5844 5843 5842 5842 5841 5840 5839 5839 5838 5837 5836 5836 5835 5835 5834 5833 5833 5832 5832 5831 5831 5830 5829 5829 5828 5828 5828 5828 5827 5827 5827 5827 5826 5826 5825 5825 5825 5824 5824 5823 5823 5823 5822 5822 5822 5821 5821 5821
5871 5871 5871 5870 5870 5870 5869 5869 5868 5868 5867 5867 5866 5866 5866 5865 5865 5864 5864 5863 5863 5863 5862 5862 5861 5861 5860 5859 5859 5858 5858 5857 5856 5856 5855 5855 5854 5853 5853 5853 5852 5851 5851 5850 5850 5849 5848 5848 5847 5846 5846 5845 5844 5843 5843 5842 5841 5841 5840 5839 5838 5838 5837 5836 5835 5834 5833 5833 5832 5832 5831 5831 5830 5830 5829 5829 5828 5828 5827 5827 5826 5826 5825 5825 5825 5825 5824 5824 5824 5823 5823 5823 5823 5822 5822 5821 5821 5820 5820 5820 5819 5819 5818
5870 5870 5869 5869 5869 5868 5868 5868 5867 5867 5866 5866 5865 5865 5864 5864 5863 5863 5863 5862 5862 5861 5861 5860 5860 5859 5859 5858 5858 5857 5856 5856 5855 5854 5854 5853 5853 5852 5851 5851 5850 5849 5849 5848 5848 5847 5847 5846 5845 5845 5844 5843 5843 5842 5841 5840 5840 5839 5838 5837 5837 5836 5835 5834 5833 5833 5832 5831 5830 5830 5829 5828 5828 5828 5827 5827 5826 5826 5825 5825 5824 5824 5823 5823 5823 5823 5823 5822 5822 5822 5821 5821 5820 5820 5820 5819 5819 5818 5818 5818 5817 5817 5817
5868 5868 5868 5868 5867 5867 5867 5866 5866 5865 5865 5864 5864 5863 5863 5863 5862 5862 5862 5861 5860 5860 5859 5859 5858 5858 5857 5857 5856 5855 5855 5854 5853 5853 5852 5852 5851 5850 5850 5849 5848 5848 5847 5847 5846 5845 5845 5844 5843 5843 5842 5842 5841 5840 5839 5839 5838 5837 5836 5836 5835 5834 5833 5832 5832 5831 5830 5829 5828 5828 5827 5827 5826 5826 5825 5825 5824 5824 5823 5823 5823 5822 5822 5821 5821 5820 5820 5820 5820 5819 5819 5819 5818 5818 5818 5817 5817 5816 5816 5816 5815 5815 5814
5867 5867 5867 5866 5866 5866 5865 5865 5864 5864 5863 5863 5863 5862 5862 5861 5861 5860 5860 5860 5859 5858 5858 5858 5857 5856 5856 5855 5855 5854 5853 5853 5852 5852 5851 5850 5849 5849 5848 5848 5847 5846 5846 5845 5844 5843 5843 5842 5842 5841 5840 5839 5839 5838 5838 5837 5836 5835 5834 5833 5833 5832 5831 5830 5830 5829 5828 5828 5827 5826 5825 5825 5824 5824 5823 5823 5823 5822 5822 5821 5821 5820 5820 5819 5819 5818 5818 5818 5818 5817 5817 5817 5816 5816 5815 5815 5815 5814 5814 5813 5813 5813 5813
5866 5866 5865 5865 5865 5864 5864 5863 5863 5863 5862 5862 5861 5861 5860 5860 5860 5859 5859 5858 5858 5857 5857 5856 5855 5855 5854 5854 5853 5853 5852 5851 5851 5850 5849 5849 5848 5848 5847 5846 5845 5845 5844 5843 5843 5842 5841 5840 5840 5839 5838 5838 5837 5836 5835 5835 5834 5833 5833 5832 5831 5830 5829 5829 5828 5827 5827 5826 5825 5824 5824 5823 5822 5822 5821 5821 5820 5820 5819 5819 5819 5818 5818 5817 5817 5816 5816 5816 5815 5815 5815 5814 5814 5814 5813 5813 5813 5812 5812 5811 5811 5811 5810
5865 5865 5864 5864 5863 5863 5863 5862 5861 5861 5861 5860 5860 5859 5859 5859 5858 5858 5857 5857 5856 5856 5855 5855 5854 5853 5853 5852 5852 5851 5850 5850 5849 5848 5848 5847 5847 5846 5845 5844 5844 5843 5843 5842 5841 5840 5839 5839 5838 5837 5836 5835 5835 5834 5833 5833 5832 5831 5831 5830 5829 5828 5828 5827 5826 5826 5825 5824 5824 5823 5822 5822 5821 5820 5819 5819 5818 5818 5818 5817 5817 5816 5816 5815 5815 5814 5814 5813 5813 5813 5813 5812 5812 5811 5811 5811 5810 5810 5809 5809 5809 5808 5808
5863 5863 5863 5863 5862 5862 5861 5860 5860 5860 5859 5859 5858 5858 5858 5857 5857 5856 5856 5855 5855 5854 5854 5853 5853 5852 5851 5851 5850 5849 5849 5848 5848 5847 5847 5846 5845 5844 5844 5843 5842 5842 5841 5840 5839 5838 5838 5837 5836 5835 5834 5833 5833 5832 5831 5830 5830 5829 5828 5828 5827 5827 5826 5825 5825 5824 5823 5823 5822 5822 5821 5820 5819 5818 5818 5817 5817 5816 5815 5815 5814 5814 5814 5813 5813 5812 5812 5811 5811 5811 5810 5810 5809 5809 5809 5808 5808 5808 5807 5807 5807 5806 5806
5862 5862 5862 5861 5861 5860 5860 5859 5859 5858 5858 5858 5857 5857 5856 5856 5855 5855 5854 5854 5853 5853 5852 5852 5851 5851 5850 5849 5849 5848 5848 5847 5846 5846 5845 5844 5843 5843 5842 5841 5841 5840 5839 5838 5838 5837 5836 5835 5834 5833 5833 5832 5831 5830 5829 5828 5828 5827 5827 5826 5826 5825 5824 5824 5823 5822 5822 5821 5820 5820 5819 5818 5818 5817 5816 5815 5815 5814 5813 5813 5813 5812 5812 5811 5811 5810 5810 5809 5809 5808 5808 5808 5807 5807 5806 5806 5806 5805 5805 5805 5804 5804 5803
5860 5860 5860 5859 5859 5859 5858 5858 5857 5857 5857 5856 5856 5855 5855 5854 5854 5853 5853 5852 5852 5851 5851 5850 5850 5849 5848 5848 5847 5847 5846 5846 5845 5844 5843 5843 5842 5841 5840 5840 5839 5838 5838 5837 5836 5835 5834 5833 5833 5832 5831 5830 5829 5828 5827 5827 5826 5825 5825 5824 5824 5823 5823 5822 5821 5820 5820 5819 5818 5818 5817 5816 5816 5815 5814 5813 5813 5812 5811 5811 5810 5810 5809 5809 5808 5808 5807 5807 5807 5806 5806 5805 5805 5804 5804 5804 5803 5803 5803 5803 5802 5802 5801
5859 5858 5858 5858 5857 5857 5857 5856 5856 5855 5855 5855 5854 5854 5853 5853 5852 5852 5851 5851 5850 5850 5849 5849 5848 5848 5847 5846 5846 5845 5845 5844 5843 5843 5842 5841 5840 5839 5839 5838 5837 5837 5836 5835 5834 5833 5833 5832 5831 5830 5829 5828 5828 5827 5826 5825 5824 5823 5823 5822 5822 5821 5820 5820 5819 5818 5818 5817 5816 5815 5815 5814 5813 5813 5812 5811 5811 5810 5809 5809 5808 5808 5807 5806 5806 5805 5805 5804 5804 5803 5803 5803 5803 5802 5802 5801 5801 5801 5800 5800 5800 5799 5799
5858 5857 5857 5856 5856 5855 5855 5854 5854 5854 5853 5853 5853 5852 5852 5851 5851 5850 5850 5849 5849 5848 5848 5847 5847 5846 5845 5845 5844 5844 5843 5843 5842 5841 5840 5840 5839 5838 5837 5836 5836 5835 5834 5833 5833 5832 5831 5830 5829 5828 5828 5827 5826 5825 5825 5824 5823 5822 5821 5820 5819 5819 5818 5818 5817 5816 5815 5815 5814 5813 5813 5812 5811 5811 5810 5809 5808 5808 5807 5806 5806 5805 5804 5804 5803 5803 5803 5802 5802 5801 5801 5800 5800 5799 5799 5799 5798 5798 5798 5798 5797 5797 5797
5856 5856 5855 5855 5854 5853 5853 5853 5853 5852 5852 5852 5851 5851 5850 5850 5849 5849 5848 5848 5847 5846 5846 5845 5845 5844 5843 5843 5843 5842 5841 5841 5840 5839 5838 5838 5837 5836 5836 5835 5834 5833 5833 5832 5831 5830 5829 5828 5828 5827 5826 5825 5824 5824 5823 5822 5821 5820 5819 5818 5817 5817 5816 5815 5814 5814 5813 5812 5812 5811 5810 5809 5809 5808 5808 5807 5806 5805 5805 5804 5803 5803 5802 5802 5801 5800 5800 5799 5799 5798 5798 5798 5797 5797 5797 5796 5796 5796 5795 5795 5795 5794 5794
5855 5854 5854 5853 5853 5852 5852 5851 5851 5851 5850 5850 5850 5849 5849 5848 5848 5847 5846 5846 5845 5844 5844 5843 5843 5842 5842 5841 5840 5840 5839 5838 5838 5837 5836 5836 5835 5834 5833 5833 5833 5832 5831 5830 5830 5829 5828 5827 5826 5825 5824 5823 5823 5822 5821 5820 5819 5818 5817 5816 5815 5814 5814 5813 5812 5812 5811 5810 5809 5808 5808 5807 5806 5806 5805 5804 5804 5803 5803 5802 5801 5801 5800 5799 5798 5798 5797 5797 5796 5796 5795 5795 5795 5794 5794 5793 5793 5793 5793 5793 5792 5792 5792
5853 5853 5852 5852 5851 5851 5850 5850 5850 5849 5849 5849 5848 5848 5847 5847 5846 5845 5844 5844 5843 5843 5842 5841 5841 5840 5840 5839 5838 5838 5837 5836 5835 5835 5834 5833 5833 5832 5831 5831 5830 5830 5829 5828 5828 5827 5826 5825 5824 5823 5822 5821 5820 5820 5819 5818 5817 5816 5815 5814 5813 5812 5811 5811 5810 5809 5808 5808 5807 5806 5805 5804 5804 5803 5803 5802 5801 5801 5800 5799 5799 5798 5798 5797 5796 5795 5795 5794 5794 5793 5793 5792 5792 5792 5791 5791 5790 5790 5790 5790 5789 5789 5789
5852 5851 5851 5850 5850 5850 5849 5849 5848 5848 5848 5848 5847 5846 5846 5845 5844 5844 5843 5842 5841 5841 5840 5839 5839 5838 5838 5837 5836 5836 5835 5834 5833 5833 5832 5831 5830 5830 5829 5829 5828 5828 5827 5826 5826 5825 5824 5823 5822 5821 5820 5819 5818 5818 5817 5816 5815 5814 5813 5812 5811 5810 5809 5808 5808 5807 5806 5805 5804 5803 5803 5802 5801 5801 5800 5799 5798 5798 5798 5797 5796 5796 5795 5794 5793 5793 5792 5792 5791 5791 5790 5790 5789 5789 5788 5788 5788 5787 5787 5787 5787 5787 5786
5850 5850 5849 5849 5849 5848 5848 5848 5848 5847 5847 5846 5846 5845 5844 5844 5843 5842 5842 5841 5840 5839 5838 5838 5837 5837 5836 5835 5835 5834 5833 5833 5832 5831 5830 5829 5828 5828 5827 5827 5826 5826 5825 5824 5823 5823 5822 5821 5820 5819 5818 5817 5816 5815 5814 5813 5813 5812 5811 5810 5809 5808 5807 5806 5805 5804 5803 5803 5802 5801 5800 5799 5799 5798 5797 5797 5796 5795 5795 5794 5793 5793 5792 5791 5791 5790 5789 5789 5788 5788 5787 5787 5786 5786 5785 5785 5785 5784 5784 5784 5784 5784 5783
5849 5848 5848 5848 5848 5847 5847 5847 5846 5846 5846 5845 5844 5844 5843 5843 5842 5841 5840 5840 5839 5838 5837 5837 5836 5835 5834 5834 5833 5832 5832 5831 5830 5829 5828 5828 5827 5826 5826 5825 5824 5823 5823 5822 5822 5821 5820 5819 5818 5817 5816 5815 5814 5813 5812 5811 5810 5809 5808 5808 5806 5805 5804 5803 5803 5802 5801 5800 5800 5799 5798 5797 5796 5795 5795 5794 5793 5792 5792 5791 5790 5790 5789 5788 5788 5787 5787 5786 5785 5785 5784 5784 5783 5783 5783 5782 5782 5781 5781 5781 5781 5781 5780
5848 5847 5847 5847 5846 5846 5846 5845 5845 5845 5844 5844 5843 5843 5842 5841 5840 5840 5839 5838 5838 5837 5836 5835 5834 5834 5833 5832 5831 5831 5830 5829 5828 5828 5827 5826 5825 5824 5824 5823 5822 5822 5821 5820 5819 5819 5818 5817 5816 5815 5814 5813 5812 5811 5810 5809 5808 5807 5806 5805 5804 5803 5802 5801 5800 5799 5798 5798 5797 5796 5795 5795 5794 5793 5792 5791 5790 5789 5789 5788 5787 5787 5786 5785 5785 5784 5783 5783 5782 5782 5781 5781 5780 5780 5779 5779 5778 5778 5778 5778 5778 5777 5777
5846 5846 5846 5845 5845 5844 5844 5844 5843 5843 5843 5842 5842 5841 5840 5839 5839 5838 5838 5837 5836 5836 5835 5834 5833 5832 5831 5830 5830 5829 5828 5827 5826 5825 5825 5824 5823 5823 5822 5821 5820 5819 5819 5818 5817 5817 5816 5815 5814 5813 5812 5811 5810 5809 5808 5807 5806 5805 5803 5803 5802 5801 5800 5799 5798 5797 5796 5795 5794 5793 5793 5792 5791 5790 5789 5789 5788 5787 5786 5785 5784 5784 5783 5782 5782 5781 5780 5780 5779 5778 5778 5777 5777 5776 5776 5776 5775 5775 5775 5774 5774 5774 5774
5845 5844 5844 5844 5843 5843 5843 5842 5842 5842 5841 5841 5840 5839 5838 5838 5837 5836 5836 5835 5834 5834 5833 5832 5831 5830 5829 5828 5828 5827 5826 5825 5824 5823 5823 5822 5821 5821 5820 5819 5818 5818 5817 5816 5815 5814 5813 5813 5812 5811 5810 5809 5808 5807 5805 5804 5803 5802 5801 5800 5799 5798 5797 5796 5795 5794 5793 5792 5791 5790 5789 5789 5788 5787 5787 5786 5785 5784 5783 5783 5782 5781 5780 5779 5778 5778 5777 5776 5776 5775 5775 5774 5773 5773 5773 5772 5772 5772 5772 5771 5771 5770 5770
5843 5843 5842 5842 5842 5841 5841 5840 5840 5840 5839 5839 5838 5838 5837 5836 5835 5834 5833 5833 5832 5832 5831 5830 5829 5828 5827 5826 5826 5824 5823 5823 5822 5821 5820 5820 5819 5818 5818 5817 5816 5815 5814 5813 5813 5812 5811 5810 5809 5808 5807 5806 5805 5804 5803 5802 5801 5800 5799 5798 5797 5796 5794 5793 5793 5791 5790 5789 5788 5787 5787 5786 5785 5784 5783 5783 5782 5781 5780 5779 5779 5778 5777 5776 5776 5775 5774 5773 5773 5772 5772 5771 5770 5769 5769 5768 5768 5768 5768 5768 5768 5767 5767
5841 5841 5840 5840 5840 5839 5839 5838 5838 5838 5837 5837 5836 5836 5835 5834 5833 5832 5831 5831 5830 5829 5828 5828 5827 5826 5825 5824 5823 5822 5821 5820 5819 5818 5818 5817 5817 5817 5816 5814 5813 5813 5813 5811 5810 5809 5808 5808 5807 5806 5805 5804 5803 5802 5801 5799 5798 5797 5796 5795 5794 5793 5792 5791 5790 5788 5788 5787 5786 5784 5783 5783 5782 5780 5780 5779 5778 5778 5777 5776 5776 5775 5774 5773 5773 5772 5771 5770 5769 5769 5768 5768 5767 5766 5765 5765 5765 5764 5764 5764 5764 5763 5763
5839 5839 5838 5838 5838 5837 5837 5836 5836 5835 5835 5834 5834 5833 5833 5832 5831 5830 5829 5828 5828 5827 5826 5825 5824 5823 5822 5821 5820 5819 5818 5817 5816 5816 5815 5815 5814 5814 5813 5813 5811 5810 5810 5809 5808 5807 5806 5805 5804 5803 5802 5801 5800 5799 5798 5797 5796 5795 5794 5793 5791 5790 5789 5788 5787 5786 5785 5784 5783 5782 5780 5779 5778 5777 5776 5775 5774 5774 5773 5772 5772 5771 5771 5770 5769 5768 5768 5767 5766 5765 5765 5764 5763 5763 5762 5761 5761 5761 5760 5760 5760 5760 5759
5837 5837 5836 5836 5836 5835 5835 5834 5834 5833 5833 5832 5832 5831 5830 5829 5829 5828 5827 5826 5825 5824 5823 5822 5822 5821 5819 5818 5818 5817 5815 5814 5813 5813 5813 5813 5812 5811 5810 5810 5809 5808 5807 5806 5805 5804 5803 5803 5802 5801 5799 5798 5797 5796 5795 5794 5793 5792 5791 5790 5789 5788 5786 5785 5784 5783 5782 5781 5780 5778 5777 5776 5775 5774 5773 5772 5771 5770 5769 5768 5768 5767 5767 5766 5766 5765 5764 5763 5763 5762 5761 5761 5760 5759 5758 5758 5757 5757 5756 5756 5756 5756 5756
5834 5834 5834 5834 5833 5833 5833 5832 5832 5831 5831 5830 5829 5829 5828 5827 5827 5826 5825 5824 5823 5822 5821 5819 5818 5818 5817 5816 5815 5814 5813 5812 5811 5811 5810 5809 5809 5808 5807 5806 5806 5806 5805 5804 5803 5802 5801 5800 5799 5798 5797 5795 5794 5793 5793 5792 5790 5789 5788 5787 5786 5785 5783 5782 5781 5780 5778 5778 5776 5775 5774 5773 5772 5770 5769 5768 5767 5766 5765 5764 5764 5763 5763 5762 5762 5761 5761 5760 5759 5758 5758 5757 5756 5755 5754 5754 5753 5753 5753 5752 5752 5752 5752
5833 5832 5832 5832 5831 5831 5831 5830 5830 5829 5828 5828 5828 5827 5826 5825 5824 5824 5823 5822 5820 5819 5818 5817 5816 5815 5814 5813 5812 5811 5811 5809 5809 5808 5807 5806 5806 5805 5805 5804 5803 5803 5803 5802 5801 5800 5799 5798 5796 5795 5794 5793 5792 5790 5790 5789 5788 5787 5786 5784 5783 5782 5781 5779 5778 5777 5775 5774 5773 5772 5771 5769 5768 5767 5766 5765 5763 5763 5762 5760 5759 5759 5758 5758 5757 5757 5756 5756 5755 5755 5754 5753 5752 5751 5750 5750 5750 5749 5748 5748 5748 5748 5748
5830 5830 5830 5829 5829 5829 5828 5828 5828 5827 5827 5826 5825 5825 5824 5823 5823 5822 5821 5819 5818 5817 5816 5815 5813 5812 5811 5811 5810 5809 5808 5807 5806 5805 5805 5804 5803 5803 5803 5802 5801 5801 5800 5799 5798 5798 5797 5796 5794 5792 5791 5790 5789 5788 5787 5786 5785 5784 5783 5782 5780 5779 5778 5776 5775 5774 5773 5771 5770 5769 5768 5766 5765 5764 5763 5761 5760 5759 5758 5757 5756 5755 5754 5753 5753 5752 5752 5752 5751 5750 5750 5749 5748 5747 5746 5746 5746 5745 5744 5744 5743 5743 5743
5828 5828 5828 5827 5827 5827 5826 5826 5825 5825 5824 5824 5823 5823 5822 5821 5820 5819 5818 5817 5815 5814 5813 5812 5811 5810 5809 5808 5808 5807 5805 5805 5803 5803 5802 5802 5801 5800 5799 5799 5799 5799 5798 5798 5797 5796 5795 5793 5792 5791 5789 5788 5787 5785 5784 5783 5782 5781 5780 5779 5778 5776 5775 5773 5772 5771 5770 5768 5767 5765 5764 5763 5762 5761 5759 5758 5756 5755 5754 5753 5752 5751 5750 5749 5748 5748 5747 5747 5746 5746 5745 5745 5744 5743 5742 5742 5741 5741 5740 5740 5739 5739 5739
5826 5826 5825 5825 5824 5824 5823 5823 5823 5822 5822 5821 5821 5820 5819 5818 5818 5817 5815 5814 5813 5812 5810 5809 5809 5808 5807 5806 5805 5804 5803 5802 5801 5800 5799 5799 5798 5798 5797 5797 5797 5796 5796 5796 5795 5794 5793 5792 5790 5789 5788 5787 5785 5783 5782 5781 5780 5778 5777 5776 5775 5773 5772 5771 5769 5768 5767 5765 5764 5762 5761 5759 5758 5757 5756 5754 5753 5751 5750 5748 5747 5746 5745 5744 5744 5743 5742 5742 5742 5742 5741 5740 5739 5739 5738 5737 5737 5736 5735 5735 5735 5734 5734
5823 5823 5823 5822 5822 5822 5821 5821 5820 5819 5819 5818 5818 5818 5817 5816 5814 5813 5813 5812 5810 5808 5807 5807 5806 5806 5805 5803 5802 5802 5801 5799 5799 5798 5797 5796 5795 5795 5794 5794 5793 5793 5793 5793 5792 5792 5791 5790 5788 5787 5786 5785 5783 5782 5780 5779 5778 5776 5774 5773 5772 5771 5769 5768 5767 5765 5764 5762 5761 5759 5757 5756 5754 5753 5751 5750 5748 5747 5746 5744 5743 5742 5741 5740 5739 5738 5738 5737 5737 5736 5736 5736 5735 5734 5733 5733 5732 5731 5731 5730 5730 5730 5730
5821 5820 5820 5820 5819 5819 5818 5818 5818 5817 5816 5816 5815 5814 5813 5813 5813 5812 5810 5808 5807 5806 5805 5804 5804 5803 5802 5801 5800 5799 5798 5797 5796 5796 5795 5793 5793 5792 5792 5791 5791 5790 5789 5788 5788 5788 5788 5787 5786 5785 5784 5784 5783 5781 5779 5777 5776 5774 5773 5771 5769 5768 5767 5765 5764 5762 5761 5759 5757 5756 5754 5752 5750 5748 5747 5745 5744 5743 5741 5740 5738 5737 5736 5735 5734 5733 5733 5732 5732 5731 5731 5731 5730 5729 5728 5728 5727 5727 5726 5725 5725 5725 5725
5818 5818 5817 5817 5816 5816 5816 5816 5815 5815 5814 5813 5812 5813 5813 5811 5809 5808 5808 5807 5805 5803 5803 5803 5803 5801 5797 5797 5797 5796 5796 5795 5794 5793 5792 5791 5790 5789 5789 5788 5788 5787 5787 5785 5785 5784 5783 5783 5784 5783 5782 5782 5781 5780 5778 5776 5774 5772 5770 5768 5767 5765 5763 5762 5761 5759 5758 5756 5754 5753 5750 5749 5747 5745 5743 5741 5739 5738 5736 5735 5733 5732 5731 5730 5729 5728 5728 5727 5726 5726 5725 5725 5724 5724 5723 5722 5722 5722 5721 5720 5720 5720 5720
5815 5815 5814 5814 5814 5813 5813 5814 5813 5813 5812 5811 5811 5811 5810 5808 5805 5804 5804 5804 5803 5801 5800 5799 5799 5797 5794 5794 5794 5793 5793 5792 5792 5791 5790 5789 5788 5787 5787 5786 5785 5784 5783 5783 5782 5781 5780 5779 5779 5779 5779 5779 5778 5778 5777 5775 5772 5770 5768 5766 5764 5763 5761 5759 5758 5756 5754 5753 5751 5749 5747 5745 5743 5741 5739 5737 5735 5733 5731 5730 5728 5727 5726 5725 5724 5724 5723 5722 5722 5721 5721 5720 5719 5718 5718 5717 5717 5717 5717 5716 5715 5715 5715
5812 5812 5812 5812 5811 5812 5812 5813 5813 5812 5811 5810 5809 5807 5804 5803 5803 5803 5802 5802 5800 5798 5797 5796 5795 5794 5793 5792 5791 5791 5790 5789 5789 5789 5788 5786 5785 5785 5784 5783 5782 5781 5781 5780 5779 5778 5777 5776 5775 5775 5775 5775 5775 5774 5773 5773 5771 5768 5765 5763 5761 5759 5758 5756 5754 5753 5751 5749 5748 5746 5744 5742 5740 5738 5736 5733 5731 5729 5727 5725 5723 5722 5721 5720 5719 5718 5718 5718 5717 5717 5716 5716 5716 5715 5713 5713 5712 5712 5712 5711 5711 5711 5711
5810 5810 5809 5809 5809 5810 5810 5810 5809 5807 5805 5805 5804 5803 5802 5801 5801 5800 5801 5799 5798 5796 5795 5794 5793 5792 5791 5790 5789 5788 5788 5787 5787 5786 5786 5784 5783 5782 5782 5781 5780 5779 5778 5777 5776 5775 5774 5773 5772 5771 5771 5771 5771 5771 5771 5769 5768 5765 5763 5761 5759 5757 5754 5753 5751 5749 5747 5745 5743 5742 5739 5738 5736 5734 5732 5729 5727 5725 5723 5721 5719 5718 5716 5715 5714 5713 5713 5713 5712 5712 5710 5710 5711 5711 5709 5708 5707 5707 5707 5708 5708 5707 5707
5808 5808 5807 5807 5808 5808 5807 5806 5805 5804 5803 5802 5802 5801 5800 5799 5799 5799 5798 5795 5793 5793 5792 5791 5790 5789 5788 5788 5787 5786 5785 5785 5784 5783 5783 5782 5781 5780 5779 5778 5777 5776 5775 5774 5773 5772 5771 5770 5769 5768 5767 5767 5767 5767 5768 5767 5765 5763 5760 5758 5757 5755 5753 5750 5748 5746 5744 5742 5740 5738 5735 5733 5731 5729 5728 5725 5723 5721 5719 5717 5714 5713 5711 5710 5709 5708 5708 5707 5706 5706 5705 5703 5703 5705 5705 5704 5703 5703 5703 5703 5704 5704 5704